Weather in Sredniye Chirki

Russia / Tyumen Oblast     56°06′02″N   68°18′01″E
temp.,
°C
wind,
m/s
gust,
m/s
humid.,
%
clouds,
%
prec.,
mm/h
press.,
hPa
HPBL,
m
7 may, fri
fri723:00+8wnw49462 0.0 1013227
02:00+7w411510 0.0 1015295
05:00+6wnw512540 0.0 1017507
08:00+9wnw79434 0.0 1018887
11:00+14wnw68312 0.0 10191168
14:00+18wnw6827100 0.0 10191513
17:00+19wnw56265 0.0 10191552
20:00+15w33393 0.0 101917
8 may, sat
sat823:00+12wsw23445 0.0 102017
02:00+11sw33495 0.0 102018
05:00+10sw22512 0.0 102116
08:00+16sw233673 0.0 1021304
11:00+20ssw332757 0.0 10191677
14:00+22s332188 0.0 10182366
17:00+21s2222100 0.0 10171983
20:00+17sse1129100 0.0 101711
9 may, sun
sun923:00+15se2236100 0.0 101711
02:00+14ene223796 0.0 101612
05:00+13ene3544100 0.0 101780
08:00+17e473999 0.0 1017334
11:00+22e6827100 0.0 10162356
14:00+23e782472 0.0 10153115
17:00+23ene8930100 0.0 10152785
20:00+19e6124067 0.0 1016506
10 may, mon
mon1023:00+14ene4115478 0.0 1017285
02:00+13ene51260100 0.0 1017300
05:00+11ene41064100 0.0 1019242
08:00+15ene574432 0.0 1019585
11:00+16ne564199 0.0 10201045
14:00+19ne773787 0.0 10192487
17:00+18ne67330 0.0 10192005
20:00+14n34455 0.0 102045
11 may, tue
tue1123:00+12e355257 0.0 102098
02:00+12ene235495 0.0 102158
05:00+11ene1154100 0.0 102116
08:00+15ene334320 0.0 1021648
11:00+17ne34373 0.0 10211925
14:00+20nne44281 0.0 10202091
17:00+20nne3428100 0.0 10202102
20:00+15e3542100 0.0 102180